Theta_e
315 315 315 314 313 312 312 312 313 313 314 315 316 316 317 317 314 312 318 327 327 325 325 326 328 332 335 335 336 337 336 334 333 331 329 329 328 327 325 323 323 322 321 321 321 321 320 319 318 318 317 316 315 313 313 312 311 311 310 309 309 308 307 306 306 305 305 304 304 304 303 303 303 303 303 303 303 303 303 304 304 304 304 303 302 300 299
315 317 317 316 315 313 312 313 314 315 315 315 315 316 318 319 317 316 321 327 327 325 323 327 332 335 335 336 337 336 335 333 332 330 329 328 327 326 324 323 322 321 321 321 321 320 320 319 318 317 316 315 314 313 312 312 311 310 309 309 308 307 307 306 305 305 304 304 303 303 303 303 303 303 303 303 303 303 303 304 304 304 304 302 301 299 298
315 317 318 317 317 314 312 312 314 315 316 315 315 316 318 319 318 320 322 321 322 324 326 328 332 335 336 337 337 336 335 333 332 330 329 328 327 325 324 323 322 321 321 321 321 320 319 318 317 317 316 314 313 312 312 311 310 310 309 308 308 306 306 305 304 304 304 303 303 303 303 302 302 302 303 303 303 303 303 303 304 304 304 303 301 299 297
315 317 317 317 317 315 313 313 315 315 315 316 316 317 318 318 317 320 321 316 316 322 327 327 328 332 335 337 337 336 334 332 331 330 329 328 327 325 324 323 322 321 321 320 320 320 319 318 317 316 315 314 313 312 312 311 310 309 308 308 307 305 305 304 304 304 303 303 303 302 302 302 302 302 302 302 303 303 303 303 304 304 304 304 302 299 297
316 318 317 316 316 315 313 314 316 317 316 317 317 318 320 321 320 319 317 316 319 323 324 326 328 329 333 336 337 335 334 332 330 329 329 327 326 324 323 322 322 321 321 320 320 320 319 318 317 316 315 314 312 312 311 310 309 308 307 307 306 305 304 304 304 303 303 302 302 302 302 301 301 301 302 302 302 303 303 303 303 303 304 304 303 301 298
316 318 318 317 316 315 317 320 321 319 318 318 318 318 320 321 320 319 318 319 322 324 324 327 329 329 332 335 334 333 333 332 330 329 328 326 325 324 322 322 322 321 321 320 320 319 318 318 316 315 314 313 312 311 310 309 308 307 307 306 305 305 304 304 303 303 302 302 302 301 301 301 301 302 302 302 302 302 302 302 302 302 303 303 303 302 299
315 317 318 318 318 320 324 327 324 321 320 320 319 320 320 319 319 320 319 319 321 321 323 329 330 330 332 334 333 332 330 331 331 329 327 326 325 323 323 322 322 321 320 320 319 319 318 317 316 315 313 312 311 310 309 308 307 307 306 306 305 305 304 304 303 303 302 302 301 302 302 302 302 302 302 302 302 301 302 302 301 301 301 302 303 302 301
313 314 316 318 320 325 329 327 324 324 324 322 321 321 320 320 320 320 318 318 319 320 322 327 330 332 334 333 332 332 330 329 330 328 327 326 324 323 323 322 321 321 320 319 319 318 317 316 315 314 313 312 311 309 308 307 307 306 306 306 305 304 304 303 303 302 301 301 302 302 302 302 302 302 302 302 301 301 301 301 301 301 300 301 301 302 302
313 312 313 317 322 327 329 326 324 325 323 320 321 321 320 321 321 320 320 319 319 321 320 322 327 331 333 333 332 332 330 329 329 328 327 326 325 323 323 322 321 320 319 319 318 317 316 315 314 314 313 311 310 309 308 307 307 306 306 305 304 304 303 303 302 302 302 302 303 302 302 302 302 302 302 302 302 301 301 301 301 301 300 299 299 300 301
312 311 312 317 320 322 324 324 323 323 321 320 322 320 319 322 321 320 320 319 320 322 321 322 326 328 330 332 332 331 330 329 328 327 326 326 325 323 322 321 320 319 319 318 318 316 315 314 313 313 312 311 309 308 307 307 307 306 306 305 304 303 303 302 302 303 303 302 303 302 303 303 303 302 302 302 302 302 301 301 301 301 301 299 298 298 298
312 312 312 314 316 317 321 323 322 321 321 321 322 320 319 320 320 320 320 320 321 321 321 327 331 330 330 332 332 331 330 328 327 326 326 325 324 323 322 320 320 319 318 317 316 315 314 313 313 312 311 310 309 308 307 307 307 306 305 304 304 303 303 303 303 303 303 302 302 302 303 303 303 302 302 302 302 301 301 301 301 301 301 301 300 298 297
312 312 312 313 316 320 322 322 321 321 321 322 323 321 321 321 322 321 319 321 323 321 323 331 333 332 332 333 333 332 330 328 327 327 325 324 323 323 321 319 319 319 317 314 313 312 312 311 311 311 311 310 308 308 308 307 306 305 304 304 304 304 303 303 303 302 302 302 302 302 302 303 302 302 302 302 302 302 301 301 301 301 301 301 301 300 299
311 312 313 313 317 323 323 320 321 322 322 324 323 322 323 325 326 325 321 322 322 321 326 332 333 331 331 331 332 332 330 328 327 326 325 324 323 322 320 319 318 316 314 312 311 311 310 310 310 311 310 310 308 308 307 306 305 305 304 304 305 304 303 303 303 302 303 302 303 303 303 303 302 302 303 302 302 301 301 302 302 301 301 301 301 301 301
311 312 313 312 316 324 324 320 322 323 323 323 323 323 325 326 326 325 324 324 322 321 327 333 332 330 330 331 332 331 329 328 327 325 324 324 322 321 319 318 316 314 313 312 311 310 310 310 310 310 310 309 308 307 306 305 305 305 305 305 304 303 303 303 303 303 303 303 303 303 303 303 303 303 303 302 302 301 301 302 302 302 302 302 301 301 301
313 313 313 313 317 325 325 321 322 323 322 322 324 325 326 326 325 326 325 325 324 323 328 331 330 329 330 331 330 329 328 327 326 324 323 323 322 320 318 316 315 314 312 311 310 310 310 309 309 309 308 307 307 306 305 305 305 305 305 304 304 303 303 303 303 303 303 303 303 303 303 303 303 303 303 303 302 302 302 302 302 302 302 302 301 301 301
313 313 315 317 320 325 325 323 324 325 325 326 327 327 327 326 326 325 324 325 328 327 329 331 330 330 331 330 329 329 328 327 326 324 324 323 321 319 316 315 314 313 312 311 311 310 309 309 308 307 307 307 306 306 306 306 305 305 304 303 303 303 303 303 303 303 303 303 303 303 303 303 303 302 303 302 302 303 303 303 303 302 302 301 301 300 300
316 317 320 322 323 325 326 326 327 327 326 326 327 327 327 327 326 325 324 326 329 329 329 330 330 330 330 329 328 328 327 326 325 324 323 323 320 317 316 315 314 313 312 311 311 310 309 308 307 307 307 306 306 307 306 305 305 304 304 303 303 303 303 303 303 303 303 303 303 303 303 303 303 303 302 303 303 303 303 303 302 302 301 300 300 300 300
318 320 322 322 322 323 325 324 326 327 325 324 325 326 327 327 327 327 326 326 328 329 329 329 328 328 329 328 328 327 326 326 325 323 323 321 318 316 316 315 313 313 313 311 311 310 309 308 308 308 307 307 307 307 306 305 304 304 303 303 303 303 303 303 303 303 303 303 303 303 303 303 303 303 303 303 303 303 303 302 302 302 301 300 300 300 299
318 320 321 322 321 323 323 322 323 324 323 323 324 326 326 326 326 328 327 327 328 329 328 328 327 327 327 327 327 326 326 325 324 323 320 319 318 317 316 315 313 313 312 311 311 310 309 309 308 308 307 307 307 306 305 304 304 303 303 303 303 303 304 303 303 303 303 303 303 303 303 303 303 303 303 304 303 303 303 303 302 302 300 300 300 300 299
317 319 322 323 322 322 322 321 322 322 322 322 324 324 325 325 325 326 327 327 327 327 327 328 326 325 326 326 326 325 325 324 323 321 319 318 318 318 316 315 314 313 312 312 311 310 309 309 308 307 307 307 306 305 304 304 303 303 303 303 303 303 303 303 303 302 302 303 303 303 303 303 303 303 303 303 303 303 303 303 303 303 301 300 300 300 299
317 320 323 323 322 322 322 322 322 322 322 322 323 323 323 324 324 324 326 326 326 326 327 327 326 324 325 325 324 324 324 323 323 321 320 318 318 317 315 313 313 313 312 311 311 310 309 308 307 307 306 306 306 305 304 303 303 303 303 303 303 303 303 302 302 302 302 302 302 303 304 303 303 302 302 302 303 303 303 303 303 302 301 299 300 300 299
319 321 323 323 322 323 323 323 322 322 322 322 323 323 323 323 323 324 325 325 325 325 325 325 325 324 324 324 324 323 323 323 322 322 320 318 317 317 315 312 312 312 311 311 310 310 308 308 307 306 306 306 305 304 303 303 303 303 303 303 303 303 302 302 302 303 303 302 302 303 304 303 302 302 302 302 301 301 300 300 301 302 300 298 297 299 299
321 321 322 323 322 322 323 322 322 322 321 322 323 322 322 323 324 324 324 324 323 323 324 324 323 322 322 323 323 322 322 322 321 321 320 318 316 316 314 312 312 311 311 310 310 309 308 308 307 306 306 305 304 304 303 303 303 303 303 303 303 303 302 303 303 303 302 302 302 303 303 303 302 301 301 301 300 299 297 295 296 298 298 295 294 296 299
322 322 321 321 321 322 323 322 321 321 320 321 322 322 323 323 323 323 323 322 322 323 323 322 322 322 321 321 322 322 321 321 321 320 319 318 317 315 313 312 311 311 310 310 309 309 308 307 306 306 305 305 304 304 303 303 303 303 303 303 303 303 303 303 303 303 302 302 303 303 303 303 303 301 300 300 299 298 295 293 293 294 294 292 292 293 295
322 322 321 320 320 322 322 320 320 320 320 320 322 323 322 322 322 322 322 322 322 322 322 321 322 321 320 321 321 321 321 320 320 319 317 317 316 314 313 312 311 310 310 310 309 309 308 307 306 306 305 304 304 303 303 303 303 303 303 303 303 303 303 303 303 303 301 301 304 303 302 303 302 301 299 299 298 296 294 293 293 293 293 293 292 292 292
320 320 319 318 319 320 319 319 320 320 319 319 321 322 321 321 321 321 322 322 322 322 322 321 321 321 320 320 320 320 320 320 319 317 317 316 315 314 312 312 311 310 310 310 309 308 307 306 306 306 305 304 304 303 303 304 303 302 303 303 303 303 303 303 303 303 301 301 303 304 303 303 302 300 298 298 297 295 294 293 294 294 294 295 294 293 291
318 318 317 318 320 320 320 319 320 319 318 318 319 320 320 320 320 320 321 322 321 321 321 321 321 321 320 320 320 320 320 319 318 317 317 316 315 314 313 312 311 310 310 310 309 308 307 306 305 305 305 304 303 303 303 303 303 303 303 303 303 304 303 302 302 304 303 302 303 304 303 303 303 301 300 299 298 296 296 295 295 296 296 297 297 295 293
317 317 317 319 320 321 319 317 317 317 317 318 318 318 318 319 318 318 319 320 320 320 320 320 321 321 320 319 320 319 319 318 318 317 317 316 315 314 313 312 311 310 310 309 308 308 307 306 305 305 305 304 303 303 304 304 303 303 304 304 304 304 303 301 301 303 304 303 303 303 303 303 302 302 302 301 300 299 299 298 298 298 298 299 299 297 295
317 316 316 317 318 317 317 316 316 317 317 316 317 317 317 317 318 318 318 319 319 318 319 319 319 320 320 319 319 319 319 318 318 318 317 316 315 314 313 312 311 310 309 309 308 307 306 306 305 305 305 304 303 303 304 304 303 303 303 305 304 304 303 302 301 302 304 303 303 303 303 302 302 301 302 302 302 301 301 301 300 300 300 300 299 298 297
317 316 316 315 315 315 315 316 316 316 316 315 316 316 316 316 317 318 318 318 318 318 318 318 319 319 319 319 318 318 318 318 317 317 317 316 315 314 313 312 311 310 309 309 308 307 306 306 305 305 305 304 303 303 304 304 303 303 304 305 304 303 303 303 302 302 303 303 303 303 302 302 302 301 301 302 301 301 301 301 301 300 301 301 300 300 299
317 316 316 315 315 315 315 316 316 315 315 315 315 315 315 316 316 316 317 317 317 317 317 318 318 318 318 318 318 317 317 316 316 316 316 315 314 313 313 311 310 310 309 309 308 307 306 306 305 305 305 304 303 304 304 304 304 304 304 304 304 303 303 303 303 302 302 303 303 303 302 302 302 301 301 302 301 300 301 301 301 301 301 301 301 300 301
316 316 316 316 315 315 315 315 314 314 314 314 314 315 315 315 315 316 316 316 316 316 316 316 317 317 318 317 317 316 316 315 314 314 313 314 313 313 312 311 310 309 309 308 307 307 306 305 305 305 304 304 304 304 304 304 304 304 303 303 304 304 303 303 303 303 302 302 303 302 302 301 301 301 301 301 301 301 300 301 301 301 300 300 300 300 301
315 315 316 316 315 314 314 314 313 313 314 314 313 314 314 314 314 314 315 315 315 315 315 315 316 316 316 315 316 315 314 313 313 311 310 310 311 311 311 310 309 309 308 307 306 306 306 306 306 305 304 304 304 304 303 303 303 304 303 303 304 304 303 303 303 302 302 302 302 302 301 301 301 301 301 301 301 301 300 300 300 300 300 300 300 300 301
315 315 315 314 314 313 313 313 313 313 313 313 313 312 312 313 313 313 313 314 314 314 314 314 314 314 313 313 312 312 312 312 311 308 307 308 309 309 309 309 309 308 307 306 306 307 307 306 305 304 304 304 303 303 303 303 303 304 304 304 304 303 303 302 302 301 302 302 301 301 301 300 300 301 301 301 300 300 300 300 300 300 300 300 300 300 300
314 313 312 312 312 312 312 312 312 312 312 312 312 312 312 312 313 313 313 313 313 313 313 313 313 312 312 311 311 311 310 308 306 305 305 307 308 308 308 308 308 308 307 306 306 306 306 305 304 303 303 303 303 303 303 302 302 303 304 303 303 302 301 301 300 301 301 301 301 301 300 300 299 300 300 300 301 300 300 300 300 300 300 300 299 300 300
312 312 311 311 311 312 311 311 311 312 311 312 312 312 311 312 312 312 312 312 312 313 312 312 312 311 311 310 309 308 306 304 303 304 305 306 307 307 307 308 307 307 307 307 306 305 304 304 303 303 303 303 302 303 303 303 303 303 304 303 302 301 300 300 300 300 301 301 301 301 300 300 299 299 299 300 300 300 300 300 300 300 299 299 299 299 300
312 312 311 311 311 312 311 311 311 311 311 311 312 311 311 311 312 312 312 312 312 312 312 311 311 310 309 308 307 306 304 302 303 303 304 305 306 307 307 307 306 306 307 307 306 304 303 303 303 303 303 303 303 303 303 303 303 303 303 303 302 301 300 300 299 300 300 300 300 301 300 300 300 300 299 300 300 300 300 300 300 300 300 299 299 299 299
312 312 311 311 312 312 312 311 311 311 311 311 311 311 311 311 311 311 311 311 311 311 310 310 309 308 305 304 303 302 301 301 302 302 304 305 306 306 306 306 306 306 306 306 306 305 304 304 304 303 303 303 303 303 303 303 303 303 303 302 302 301 301 300 300 300 300 300 300 300 300 300 300 300 300 300 300 300 300 300 300 300 300 300 299 299 299
311 312 311 311 311 312 311 311 311 311 311 311 311 311 310 311 311 311 311 311 310 310 310 309 308 306 304 302 301 300 299 300 301 302 303 305 305 305 306 306 306 306 306 306 306 305 305 304 304 303 303 303 303 303 303 302 302 302 302 301 301 301 301 301 300 300 299 299 299 300 300 300 300 300 300 300 300 300 300 299 299 299 299 299 299 299 299
311 311 311 311 311 311 311 311 311 311 311 311 311 311 310 310 310 310 310 310 309 309 309 308 307 305 303 302 301 300 299 299 300 302 303 304 304 305 305 305 305 305 305 305 305 304 304 304 303 303 303 303 303 303 303 302 301 301 301 301 301 301 301 301 300 299 299 299 299 299 300 300 300 300 300 300 300 300 299 299 299 299 299 299 299 299 299
311 311 311 311 311 311 311 311 311 311 310 310 311 310 310 310 310 310 310 310 309 308 308 307 306 305 303 302 301 300 299 299 301 302 303 304 304 303 303 304 304 304 304 304 304 303 303 303 303 303 303 303 303 303 302 302 301 300 301 301 301 301 301 301 300 300 299 299 299 299 300 300 300 300 300 300 300 300 300 300 300 300 299 299 299 299 299
311 311 311 311 311 311 311 311 311 311 310 310 310 310 310 310 310 310 310 309 308 308 308 307 305 304 303 302 301 300 300 300 301 302 303 303 303 303 303 303 303 304 304 303 303 303 303 303 303 303 303 303 302 302 302 302 300 300 300 301 301 301 301 301 300 300 300 300 300 300 300 300 300 301 301 301 301 301 301 301 301 301 300 300 300 300 300
311 311 310 311 311 311 311 311 311 311 311 310 310 310 310 310 310 310 310 309 308 308 308 306 304 303 302 301 301 300 300 300 301 302 303 303 303 303 303 303 303 303 303 303 303 303 303 302 302 302 302 302 302 302 302 301 300 300 300 301 302 302 301 301 301 301 301 301 301 301 301 301 301 301 301 301 301 301 301 301 301 301 301 301 300 300 300
311 310 310 311 311 310 310 310 310 310 310 310 310 310 310 310 310 310 309 309 309 309 307 305 304 304 303 302 301 301 301 301 302 302 302 303 303 303 303 303 303 303 303 302 302 302 302 302 302 302 302 302 302 302 302 301 300 300 300 300 301 301 302 302 302 301 301 301 301 301 301 301 301 301 301 301 301 301 301 301 301 301 301 301 301 300 300
311 310 310 310 310 310 310 310 310 310 310 310 310 309 309 310 310 309 309 309 309 309 307 306 306 305 304 303 303 303 302 302 302 302 302 303 303 303 302 302 303 303 302 302 302 302 301 301 301 301 301 301 301 301 301 301 301 300 300 300 299 300 301 302 302 302 302 302 302 302 302 302 302 302 302 302 301 301 301 301 301 301 301 301 301 301 301
310 310 310 310 310 310 310 310 310 310 310 310 310 309 309 309 309 309 309 309 309 308 308 307 307 307 306 305 305 304 303 303 303 302 302 303 303 303 303 303 302 302 302 302 302 302 302 301 301 300 300 301 301 301 301 301 301 301 301 300 300 299 300 301 301 302 302 302 302 302 301 301 301 301 302 301 301 301 300 300 300 300 301 301 301 301 301
310 310 310 310 310 310 310 309 309 309 309 309 310 309 309 309 309 310 309 309 309 309 309 308 308 307 307 307 306 305 304 304 303 303 303 303 303 303 303 303 302 302 302 302 302 302 302 302 302 301 301 301 301 301 301 302 302 302 302 301 301 300 300 301 301 301 301 301 301 301 301 301 301 301 301 301 301 301 300 300 300 300 300 300 300 300 300
310 310 309 309 309 309 309 309 309 309 309 310 310 310 310 309 309 309 309 309 309 309 308 308 308 308 307 307 307 306 306 305 304 303 303 303 303 303 303 303 302 302 302 301 301 301 301 302 303 303 302 302 301 301 301 302 302 302 303 302 302 301 301 301 301 301 301 301 301 300 300 300 300 300 300 300 301 301 301 301 301 301 300 300 300 300 299
310 310 309 309 309 309 309 309 309 309 309 309 310 310 310 309 309 309 309 309 309 308 308 308 308 308 307 307 307 307 307 306 306 305 304 304 304 304 303 302 302 302 302 301 301 301 301 302 302 302 302 302 301 301 301 302 302 302 303 302 302 301 301 301 301 301 301 301 301 301 300 300 300 300 300 300 300 301 301 301 301 301 301 301 300 300 300
310 310 309 309 309 309 309 309 309 309 309 309 309 309 309 309 309 309 309 309 309 308 308 308 307 307 307 307 307 307 307 306 306 306 305 305 305 304 303 302 302 302 302 302 302 302 302 302 302 302 302 302 301 301 301 301 301 302 301 301 301 301 301 301 301 301 301 301 301 301 301 301 300 300 300 301 301 301 301 301 301 301 301 301 301 300 300
310 310 310 309 309 309 309 308 308 309 309 309 309 309 308 309 309 309 309 308 308 308 308 307 307 307 307 307 307 307 307 307 306 306 305 305 305 304 304 303 302 302 302 303 303 303 303 303 302 301 301 301 301 301 301 301 301 301 300 300 300 300 300 301 301 301 301 301 301 301 301 301 301 301 301 301 301 302 301 301 301 301 301 301 301 300 300
310 310 309 309 309 308 308 308 308 308 308 308 308 308 308 308 308 308 308 308 308 308 308 308 307 307 306 306 306 306 306 306 306 306 305 305 305 305 304 304 303 303 302 302 302 302 303 302 302 301 300 300 301 301 300 300 300 300 299 299 300 300 300 300 300 301 301 301 301 301 301 301 301 301 301 301 302 302 301 301 301 301 301 301 301 300 300
Wind_Speed
12 13 15 16 14 15 16 15 13 14 16 16 11 8 11 10 7 6 6 11 11 8 9 10 7 9 12 14 14 14 16 17 16 15 15 16 15 14 16 17 17 17 17 17 19 22 22 22 22 21 21 21 19 19 20 19 20 21 21 21 20 20 19 18 18 18 17 17 17 16 16 15 15 15 15 15 15 14 14 14 13 13 13 13 13 13 14
6 6 9 12 14 15 15 15 14 12 14 16 14 12 11 10 9 8 5 8 10 9 10 9 8 9 10 11 13 15 18 18 17 18 18 18 17 16 17 19 17 16 16 17 20 22 23 23 24 23 22 22 21 21 21 20 20 21 21 21 21 20 19 18 18 18 17 17 17 16 16 15 15 15 15 15 15 14 14 14 13 12 12 13 13 14 15
4 4 5 9 14 16 15 14 15 14 12 13 15 13 10 8 9 9 7 6 6 6 10 11 10 11 12 11 14 16 18 18 20 21 19 19 19 18 17 17 16 15 15 17 20 23 23 24 24 23 22 22 22 22 22 21 21 22 22 22 21 20 19 19 19 18 18 17 17 16 16 15 15 15 14 15 15 14 14 14 13 12 11 12 13 14 16
3 3 6 8 9 14 15 16 18 17 13 10 10 10 8 7 8 9 9 7 4 3 9 12 12 14 15 15 16 16 15 18 21 22 21 21 20 19 18 16 15 16 16 16 19 22 24 25 25 24 24 24 23 23 23 22 22 22 22 22 21 20 20 19 19 18 18 18 17 16 16 15 15 15 14 14 14 14 14 13 12 12 11 11 12 12 15
4 5 6 5 4 7 9 9 11 13 13 11 9 9 8 8 7 7 6 5 3 2 4 10 14 16 16 16 16 15 16 17 18 18 20 20 20 20 19 17 17 17 16 18 22 24 25 25 25 25 25 25 24 24 24 24 23 23 23 22 21 21 20 19 19 19 18 18 17 16 16 16 15 15 14 14 14 14 14 13 13 12 11 11 11 10 12
6 9 7 4 4 6 3 2 5 8 11 13 12 11 10 8 7 6 5 5 5 4 4 10 14 14 14 14 13 13 14 15 16 17 19 19 20 20 19 18 17 16 17 21 24 25 26 26 26 26 26 25 25 25 25 25 24 24 23 23 22 21 20 20 19 19 18 18 18 17 17 16 15 14 14 14 13 13 13 13 13 12 11 10 10 10 10
6 9 8 5 6 4 2 6 6 8 8 9 11 12 14 14 12 11 9 9 9 8 6 12 14 11 10 12 13 13 14 14 16 17 18 19 21 21 19 18 17 17 20 23 23 24 25 26 27 27 26 26 26 26 25 25 25 24 24 23 22 21 21 20 19 19 19 19 18 17 16 16 15 14 13 13 13 13 12 13 13 12 11 10 9 9 9
6 6 8 6 3 4 4 4 3 5 7 7 5 7 11 13 13 13 12 12 12 10 7 10 14 13 11 11 11 13 14 15 16 17 18 20 21 19 18 18 18 21 24 25 25 25 25 26 28 27 27 27 27 26 26 25 25 24 24 23 22 22 21 21 20 20 20 19 18 17 16 16 15 14 13 13 13 13 13 12 12 12 11 10 9 8 8
6 6 7 5 4 4 3 2 2 3 5 6 4 4 7 8 9 10 12 14 13 11 9 10 12 14 14 10 9 12 14 15 17 18 17 18 19 18 19 21 23 26 27 27 27 27 26 28 29 28 28 28 27 26 26 25 25 25 24 23 23 23 22 21 21 21 20 19 19 17 17 16 15 14 14 13 12 12 12 12 11 11 11 11 10 9 7
5 6 7 6 4 4 6 8 8 6 5 5 5 5 5 6 9 10 10 12 11 10 10 9 8 12 11 9 8 12 15 16 16 16 15 16 20 21 22 23 25 27 27 27 28 28 28 28 28 28 29 29 28 27 26 26 25 25 24 24 24 23 22 22 21 21 20 19 19 18 17 16 15 14 13 12 11 11 11 11 10 10 10 10 10 10 9
5 6 5 5 5 3 4 10 12 8 4 2 3 5 6 7 10 11 10 10 10 10 9 5 10 9 9 7 7 11 16 17 17 16 14 17 23 24 24 26 26 27 28 28 27 28 27 26 27 30 30 28 27 27 26 26 25 25 24 25 25 24 23 22 21 21 21 20 19 18 17 16 15 14 13 12 12 11 11 10 10 10 9 9 8 7 8
5 5 4 3 2 1 5 9 10 8 6 4 4 6 4 3 5 10 13 12 11 11 8 7 10 8 6 5 7 12 17 17 17 16 17 20 22 23 25 29 28 27 28 28 28 28 27 26 28 30 29 27 26 26 26 25 25 25 26 26 25 24 24 23 22 21 21 20 19 18 17 16 15 14 12 11 10 10 10 10 10 9 8 8 7 6 5
6 6 5 4 2 4 7 10 9 7 6 5 6 4 1 4 5 4 9 11 11 10 7 8 8 5 2 2 7 15 19 18 17 18 22 25 24 24 28 30 28 26 26 27 28 28 28 29 30 30 29 27 26 25 25 25 24 25 26 26 25 25 24 23 22 21 21 20 19 18 17 16 15 13 12 11 10 9 9 9 8 8 7 7 7 6 5
5 5 6 5 2 1 4 8 10 8 5 3 2 1 3 5 7 7 6 6 9 9 7 8 6 5 6 8 13 17 18 17 18 19 21 24 25 27 29 29 28 26 25 26 27 28 29 30 30 29 28 26 26 26 25 25 26 26 26 26 26 25 24 23 23 22 21 20 19 18 17 16 15 13 12 11 10 10 9 8 7 6 5 6 6 5 6
6 5 6 6 3 0 4 8 8 6 3 0 2 1 1 3 6 7 6 4 6 5 5 9 7 7 9 11 15 16 16 17 19 19 21 23 24 26 27 27 29 29 26 26 27 27 29 30 28 28 28 26 25 25 25 26 27 27 27 27 26 25 24 24 23 22 22 21 19 18 17 15 14 13 12 11 10 10 10 9 8 7 6 6 5 4 5
5 5 3 2 1 2 4 5 4 2 2 2 3 3 2 5 5 5 4 3 6 4 7 11 9 8 10 11 13 14 15 17 18 18 21 24 25 26 27 28 30 30 26 26 27 28 29 30 28 28 28 26 26 25 25 27 28 27 27 27 26 25 25 24 24 23 22 20 19 18 17 15 14 13 12 11 10 9 9 9 8 8 7 5 4 4 4
1 1 3 3 2 4 6 5 4 3 4 2 2 3 4 4 4 4 3 2 5 7 9 11 8 7 9 10 12 14 15 17 17 17 20 24 26 28 30 30 30 29 27 27 28 29 29 29 28 28 28 27 27 26 27 28 29 28 28 27 26 26 25 24 24 23 21 19 18 18 17 15 14 13 12 11 10 8 8 7 7 6 6 5 4 4 3
1 3 5 4 4 5 5 3 3 3 3 2 3 3 4 4 4 4 1 0 4 6 8 9 7 6 8 10 12 13 13 15 16 17 19 23 28 30 29 30 31 31 29 29 29 30 30 29 28 27 27 28 27 27 29 29 28 28 28 27 26 26 25 24 24 22 21 20 19 18 16 14 13 13 11 11 10 9 8 7 6 5 5 5 5 4 3
1 2 4 4 5 5 3 2 2 2 1 2 4 3 4 4 4 3 2 1 4 6 7 8 7 7 9 10 11 12 12 13 15 16 17 21 28 30 29 31 33 32 31 30 30 30 30 28 28 28 27 27 28 28 29 29 28 28 28 27 26 25 24 24 24 22 21 21 19 18 16 14 13 13 11 10 10 9 9 8 7 6 5 4 4 4 4
3 3 4 4 4 4 3 3 2 1 1 3 4 3 4 4 3 3 3 2 4 5 6 7 8 8 9 10 11 12 11 12 13 15 16 21 26 28 29 31 32 31 31 31 30 29 28 28 28 29 28 28 28 29 29 29 28 29 28 27 26 25 24 24 23 22 22 21 20 18 16 14 13 12 11 11 10 8 7 7 7 6 6 6 4 2 3
4 3 4 3 1 3 2 2 1 1 1 2 3 2 3 4 4 4 3 2 3 4 5 6 7 7 8 10 11 11 11 12 12 14 18 23 24 25 26 28 28 28 30 31 29 28 28 28 29 29 28 28 29 29 29 29 28 29 28 27 26 25 24 24 23 22 22 21 19 18 16 13 12 10 9 10 11 10 8 7 6 7 8 8 5 3 3
1 2 2 2 1 3 3 5 4 3 2 1 1 1 1 3 4 4 4 3 3 3 4 5 7 7 7 9 11 11 11 13 14 17 21 24 23 23 25 28 27 27 29 30 30 29 28 28 29 29 28 29 29 29 29 29 28 29 29 27 26 25 24 23 23 23 23 21 19 18 16 15 14 12 9 9 10 10 8 7 6 6 7 6 6 5 5
2 3 1 1 2 3 1 2 4 4 3 2 2 1 0 2 4 4 4 4 3 3 3 4 6 7 6 8 11 12 12 13 17 21 24 25 23 23 26 28 27 26 28 30 30 29 28 28 29 29 28 29 30 29 29 28 28 30 29 26 25 24 23 23 23 23 23 21 19 18 17 16 17 15 11 11 10 7 5 6 7 8 7 6 6 7 6
2 2 2 2 2 2 2 1 2 3 3 4 3 3 3 2 2 3 4 4 5 5 4 4 6 8 8 8 9 11 13 14 19 24 27 27 26 26 27 28 27 26 28 29 29 28 29 29 29 29 29 30 30 29 28 28 29 30 28 25 25 24 23 24 24 23 22 21 19 19 18 16 16 17 14 12 11 7 4 6 8 8 7 6 6 8 8
2 2 1 1 1 1 2 2 2 3 4 3 2 3 5 5 2 1 4 4 4 6 6 4 4 7 9 7 6 8 10 13 19 24 25 25 25 26 27 29 28 27 29 30 28 28 29 29 29 29 29 30 30 29 28 29 30 30 27 25 25 24 23 25 25 22 21 20 18 18 19 17 16 17 15 14 14 11 9 10 10 9 8 8 6 6 7
3 2 1 2 2 1 1 1 3 5 4 2 2 2 3 4 6 3 2 3 3 5 6 5 5 7 8 8 9 9 10 14 21 25 23 22 23 25 27 29 29 29 31 31 29 29 29 30 30 29 29 30 30 29 29 30 31 30 27 25 25 24 24 27 25 20 21 21 18 16 19 18 17 18 17 16 17 17 16 15 14 12 12 11 9 7 6
3 1 1 1 2 2 4 4 3 4 4 3 2 1 1 2 2 3 0 3 3 3 4 6 7 7 7 10 11 11 13 18 21 22 21 21 23 25 27 29 30 31 32 31 30 30 31 31 31 29 29 30 29 29 29 31 31 29 27 25 25 24 24 27 25 19 19 21 19 16 18 18 17 19 20 20 22 21 19 18 18 17 16 15 13 11 8
3 3 3 2 2 3 4 4 3 2 2 2 1 1 1 1 2 3 3 3 4 4 4 6 8 7 5 7 8 8 13 17 18 18 19 21 24 26 27 29 30 32 32 31 30 31 32 31 30 28 29 30 30 28 29 30 30 29 26 24 24 24 24 27 25 19 17 20 19 17 16 17 16 16 17 19 23 23 21 20 20 18 18 17 15 13 11
4 4 3 4 4 3 2 2 2 2 2 1 0 0 0 1 2 3 4 5 5 3 3 5 7 6 7 9 7 6 9 12 14 16 18 21 24 26 27 28 30 31 31 30 29 30 31 31 29 28 29 31 30 29 29 30 30 28 26 22 23 24 24 24 25 21 17 17 19 18 16 16 16 15 14 14 17 17 17 18 18 17 17 18 17 15 14
4 4 3 3 4 2 2 3 3 3 2 1 0 1 1 1 2 2 3 4 3 4 5 5 4 4 7 9 9 9 9 11 13 15 17 21 25 26 26 28 29 27 25 26 28 30 31 31 29 28 29 32 31 28 28 29 28 26 25 22 21 24 23 22 23 22 18 15 17 18 17 16 16 16 14 13 14 13 13 13 14 12 12 16 20 20 18
4 4 2 1 2 2 2 2 2 2 3 2 2 1 0 1 1 1 3 3 2 2 2 2 2 4 6 8 9 10 11 11 12 12 13 17 22 24 25 26 24 19 18 22 27 31 32 31 29 28 30 32 30 27 29 29 25 23 24 22 20 23 25 22 20 21 19 16 16 17 17 16 15 15 15 14 14 14 13 12 12 11 9 11 16 18 18
3 3 3 3 2 2 2 3 2 1 2 2 1 1 1 1 1 3 4 2 3 3 2 1 1 2 4 7 9 10 12 14 15 16 16 17 18 20 23 25 24 20 17 18 21 25 26 27 28 30 31 31 28 27 30 30 24 22 24 23 20 23 27 24 18 17 18 18 17 17 17 16 15 14 15 14 14 14 14 12 12 12 11 12 13 13 14
3 2 2 1 2 1 1 1 2 1 1 2 2 2 2 1 1 3 3 1 5 4 1 1 1 2 7 9 8 11 15 16 16 17 19 19 20 22 23 24 23 21 20 19 19 18 18 19 24 29 31 30 27 26 30 31 26 22 24 23 20 23 29 28 21 16 15 17 17 17 18 18 16 14 14 15 14 14 13 13 12 12 12 12 12 11 11
0 3 4 3 3 3 4 4 2 0 2 3 3 2 2 2 2 5 6 4 3 3 2 3 6 8 12 13 12 13 14 12 10 12 17 21 23 25 26 24 21 21 22 22 20 17 16 19 25 28 28 28 26 25 27 29 27 23 22 21 20 24 30 29 24 18 15 15 17 17 18 19 18 15 14 15 15 14 13 12 12 11 11 11 11 11 11
2 2 1 2 3 4 4 5 5 4 4 2 1 3 3 2 3 6 6 3 1 1 2 7 10 11 11 11 10 10 10 10 12 15 20 23 26 28 28 27 25 25 26 24 22 21 22 23 24 25 25 24 23 23 25 27 25 22 22 21 21 25 29 28 24 19 16 15 17 18 17 18 18 16 14 14 15 15 15 14 13 12 11 10 11 11 12
2 1 2 1 2 3 3 3 4 4 4 3 3 4 4 3 3 3 2 1 1 1 2 6 8 9 9 8 8 9 12 15 18 21 22 23 26 28 29 27 26 27 26 23 22 26 27 25 25 25 25 24 24 24 25 26 24 21 21 21 22 25 27 26 23 21 17 15 16 17 17 18 18 17 16 15 14 15 16 16 15 15 14 13 12 12 13
2 3 4 3 4 4 4 3 4 3 2 2 3 4 4 2 2 1 1 1 2 2 3 4 4 6 8 9 9 12 15 17 19 22 23 23 24 26 26 25 25 25 22 19 22 28 29 27 28 28 27 26 25 25 27 28 24 19 19 20 21 24 25 24 23 22 20 17 16 16 17 18 18 18 17 16 15 14 14 15 15 15 15 15 15 14 13
3 2 2 3 3 2 1 1 3 3 3 2 3 4 3 2 2 3 2 3 4 4 4 5 6 9 11 11 11 12 13 15 18 21 22 21 22 23 23 22 23 22 19 19 23 27 27 27 31 31 27 24 23 24 27 27 23 18 18 20 21 22 24 24 23 22 21 19 18 17 17 17 17 17 17 17 17 16 15 15 14 14 15 15 16 17 16
2 1 0 1 2 2 2 1 1 2 2 1 2 3 3 2 3 3 4 5 6 5 4 6 7 9 9 10 10 10 12 15 18 20 20 18 18 19 20 19 20 21 21 22 24 26 27 28 31 30 26 22 21 22 25 27 24 20 19 20 21 21 23 23 23 22 22 21 20 19 18 18 18 18 18 18 18 18 17 17 17 16 15 15 15 16 18
1 1 1 0 1 2 2 1 1 2 2 1 2 3 3 3 4 4 4 5 6 5 6 8 8 8 9 10 9 9 12 16 19 20 19 17 16 16 15 15 19 23 24 22 21 24 28 30 28 26 23 22 21 22 25 28 27 22 19 19 20 20 20 22 22 22 21 22 21 20 19 18 18 19 19 18 18 18 19 19 19 19 18 17 17 17 17
1 1 0 1 1 1 1 1 2 3 2 2 3 4 4 4 4 5 5 5 6 7 7 8 8 9 10 11 12 12 13 16 18 19 19 17 16 13 11 11 16 22 23 20 18 22 27 29 27 25 23 21 21 22 26 30 31 26 19 17 20 21 19 19 21 21 21 22 22 21 20 19 18 18 19 18 17 17 17 17 18 20 20 20 20 19 19
2 1 2 2 1 2 1 1 2 3 3 2 3 4 4 4 4 5 6 6 7 7 7 8 10 11 12 13 14 14 14 15 16 16 17 18 17 15 12 13 18 21 21 19 18 20 23 25 26 25 22 17 16 21 26 30 32 28 21 16 18 21 19 18 20 20 21 21 21 20 20 20 19 18 19 19 18 18 18 17 17 17 18 18 19 20 20
4 3 2 1 2 2 2 2 3 3 3 3 3 4 4 4 4 6 7 8 8 8 8 10 12 12 13 14 14 13 14 15 16 15 15 16 17 18 18 20 23 24 22 20 20 20 21 22 23 25 24 17 14 18 25 30 30 28 22 16 15 17 18 19 19 19 19 19 20 19 19 20 20 19 19 19 18 18 19 19 19 18 18 18 18 18 18
4 3 2 2 2 3 4 4 3 3 3 3 3 4 4 4 5 6 6 7 7 8 11 12 11 11 12 13 12 11 12 14 15 16 15 13 12 15 18 21 24 26 27 24 21 21 22 22 22 24 25 20 15 16 24 29 28 27 24 20 16 14 16 17 18 19 19 18 19 19 18 18 19 20 19 19 19 19 19 19 20 20 20 20 20 20 19
5 4 3 2 2 3 3 4 4 3 3 4 4 4 4 5 6 7 7 6 6 8 10 11 11 10 11 11 10 11 12 14 15 17 17 13 11 14 19 21 22 26 29 27 23 20 20 20 20 22 24 22 19 19 24 28 26 24 24 23 21 18 17 16 16 17 18 18 18 19 19 19 19 19 18 18 18 18 18 19 19 19 19 20 20 20 20
4 4 4 4 3 3 2 2 3 4 4 5 5 5 5 5 5 7 8 8 8 9 10 11 10 10 10 10 10 10 11 12 14 17 18 15 14 18 22 22 22 27 32 30 25 23 23 23 23 24 26 26 26 25 26 27 25 22 22 23 23 22 21 19 18 17 18 18 18 19 19 19 19 19 18 19 19 19 18 18 18 18 18 18 18 18 18
4 4 5 5 4 3 3 2 2 3 4 4 4 5 6 6 5 5 6 7 8 9 9 10 9 9 9 11 11 11 11 11 12 15 17 16 15 18 22 21 19 26 33 33 28 27 28 28 28 30 32 31 29 27 25 24 23 22 21 21 22 22 22 21 20 19 19 19 19 19 19 19 18 18 18 18 18 19 19 19 19 19 19 19 19 19 19
4 5 5 5 5 4 4 2 2 3 3 4 4 6 8 7 6 5 5 6 7 7 8 9 9 10 11 12 13 13 14 13 12 13 16 17 16 19 24 23 19 22 30 33 32 30 28 25 27 32 36 35 31 28 25 21 19 20 20 20 20 20 20 20 20 19 19 19 20 20 20 19 19 19 18 18 18 18 18 18 19 20 20 21 22 22 22
4 5 5 5 4 5 5 3 3 3 4 4 4 7 7 7 6 6 6 7 8 8 8 8 9 9 11 13 13 12 13 14 14 14 18 20 18 18 22 24 22 22 26 31 33 34 30 24 21 26 34 35 33 30 27 22 19 19 18 18 18 19 19 19 20 19 19 19 20 20 20 20 20 20 20 20 20 20 20 20 20 21 21 21 22 23 22
4 5 5 5 4 5 6 5 4 4 4 4 5 7 7 6 6 7 7 8 8 8 8 9 9 9 9 10 11 12 14 15 15 16 18 20 20 19 21 24 25 24 24 26 29 31 30 25 19 20 26 32 32 30 26 24 22 21 20 19 18 18 19 19 19 20 20 19 19 19 20 20 20 21 21 21 21 21 22 23 24 24 24 23 23 24 24
5 5 5 5 5 5 6 6 6 4 4 4 5 6 5 5 6 8 9 8 8 8 8 9 11 13 11 9 9 11 14 15 18 21 22 21 21 21 23 25 27 27 26 26 26 26 25 24 21 20 23 29 30 27 23 22 22 22 22 22 21 19 18 18 18 18 19 19 19 18 18 18 18 19 20 20 20 21 22 23 23 22 22 22 22 23 24
4 3 3 4 5 5 5 5 5 5 5 5 5 5 5 6 6 7 8 7 7 7 7 7 9 11 12 10 9 9 10 11 14 19 22 22 22 24 25 26 27 29 29 29 26 22 21 24 24 23 24 27 27 24 22 22 23 21 21 21 21 21 20 20 19 19 18 18 19 19 19 19 20 20 20 19 19 19 20 20 21 21 22 23 23 24 24
Wind_Direction
185 196 186 169 181 201 203 204 203 199 207 222 233 213 197 202 224 243 192 145 145 166 180 186 172 133 131 138 138 136 137 140 143 145 147 149 150 156 162 163 163 162 162 161 160 159 157 154 152 149 145 144 146 147 146 144 141 141 142 140 135 132 130 128 126 124 122 120 117 115 112 108 104 102 99 95 92 89 87 86 84 84 84 81 75 66 55
196 188 187 182 190 201 203 200 202 207 206 206 219 236 227 207 221 252 227 163 167 176 175 170 141 116 119 124 124 133 142 145 147 152 158 161 159 161 165 165 165 165 163 162 160 160 159 157 155 152 147 146 149 149 149 148 146 146 144 139 135 133 131 130 129 127 124 123 120 116 113 109 106 103 99 97 94 91 89 87 85 85 84 82 76 66 57
190 169 250 239 203 194 198 197 198 208 211 203 207 224 234 224 223 238 238 223 216 176 153 153 139 121 120 125 132 143 150 153 157 162 166 167 165 163 164 164 165 165 163 162 161 162 163 160 155 153 151 151 151 151 151 151 150 148 143 138 136 134 133 133 132 130 128 126 122 118 115 111 108 105 101 97 94 92 90 88 87 88 86 83 78 66 57
188 183 288 272 194 185 198 200 198 203 209 209 207 212 217 213 217 231 232 227 236 181 147 151 152 144 144 149 149 149 154 159 165 170 171 170 168 164 164 165 167 167 166 163 164 166 165 160 155 153 152 152 152 152 154 153 151 147 142 139 137 136 137 137 135 133 131 128 124 121 118 115 112 109 104 100 98 95 92 90 89 89 86 84 83 70 55
174 185 252 266 169 181 206 208 204 204 204 204 207 216 219 210 211 229 230 209 211 231 167 152 154 155 159 163 163 162 161 159 163 171 173 172 170 167 168 169 169 170 169 167 167 167 163 160 157 156 155 152 152 154 155 152 149 145 142 140 140 140 141 140 137 136 134 130 127 124 120 119 116 113 109 105 102 98 95 93 89 86 85 84 85 77 58
173 171 196 226 196 193 211 313 278 239 218 205 202 209 211 207 215 227 230 223 223 229 179 149 154 165 169 169 168 168 164 159 163 173 177 176 174 173 173 172 172 173 169 167 169 166 162 160 157 154 154 152 151 153 153 150 148 145 143 142 143 143 143 141 140 138 136 133 129 126 125 125 123 119 116 111 108 103 98 93 88 85 85 85 86 86 70
196 166 167 201 213 192 43 2 315 283 267 238 221 219 211 202 207 216 224 230 233 231 185 149 155 170 163 152 155 164 171 171 169 172 178 179 178 177 175 174 174 172 167 166 167 165 162 159 154 151 151 150 151 153 152 149 148 146 145 145 145 145 144 143 141 140 137 134 134 134 135 133 128 125 121 117 113 108 102 97 93 89 87 86 88 91 84
209 180 179 200 187 119 73 18 319 307 306 288 269 252 230 212 204 203 209 225 235 236 205 160 160 163 148 142 159 171 175 176 173 175 183 184 180 176 175 174 171 167 167 166 165 164 159 153 151 151 151 151 152 152 151 150 149 148 147 146 146 146 146 144 143 142 140 141 141 141 139 134 130 127 124 120 116 111 106 102 98 93 88 85 86 92 94
206 197 188 171 116 120 137 178 220 225 243 244 250 268 255 242 230 209 201 213 224 224 220 204 178 159 147 150 175 175 172 175 177 180 187 184 174 169 170 169 165 164 165 164 162 161 155 149 151 154 153 153 152 152 152 152 151 150 149 148 148 148 148 147 147 147 147 146 144 142 139 136 132 129 126 123 121 118 115 112 109 105 97 88 86 91 100
211 216 202 178 169 196 200 192 188 194 220 220 215 240 250 243 247 243 224 214 210 212 228 219 163 149 156 168 181 176 170 169 172 181 187 173 160 161 164 163 161 162 164 164 162 159 154 152 155 155 153 153 153 152 154 154 153 153 152 150 150 150 151 151 151 150 149 146 144 143 142 138 134 133 130 127 125 122 119 119 119 119 114 105 96 91 95
216 228 226 207 207 231 204 176 170 173 190 180 186 231 240 225 226 235 234 224 213 216 224 171 124 145 178 184 182 175 167 165 170 177 173 155 153 159 160 159 162 164 164 161 157 155 153 153 154 154 155 156 155 155 156 156 155 155 154 153 153 154 154 153 152 150 148 147 146 144 141 137 136 135 132 130 131 129 128 128 127 126 128 128 122 108 97
216 218 233 233 215 71 101 130 143 154 161 167 192 210 223 248 237 224 220 220 222 225 212 149 140 170 196 194 177 161 157 163 168 164 154 150 154 156 155 159 165 164 158 153 150 151 152 151 152 155 158 158 156 156 157 157 158 157 156 155 155 154 152 152 150 150 149 148 146 143 140 139 137 137 136 137 139 138 135 132 130 129 131 138 144 149 139
211 205 227 233 168 109 116 128 133 134 140 169 198 200 253 352 348 283 229 217 221 226 200 156 160 171 122 113 144 146 152 159 158 152 152 155 157 154 154 160 161 154 150 150 150 152 155 156 158 160 160 157 156 157 158 159 161 159 157 155 153 151 152 152 151 150 149 148 145 142 141 140 138 137 137 136 135 131 124 123 129 138 147 151 155 163 174
217 204 223 232 219 111 126 133 135 143 158 182 194 220 310 339 0 344 303 238 227 226 182 148 142 111 99 118 135 145 152 151 148 150 152 155 157 156 156 159 154 147 148 153 153 155 159 162 163 162 159 157 157 159 162 163 162 159 156 153 151 152 153 152 150 149 149 147 145 143 142 142 139 138 138 137 136 131 126 128 135 144 154 158 163 174 181
216 211 211 222 243 223 162 154 148 161 181 289 351 322 330 16 6 337 318 294 274 254 149 116 98 99 118 132 140 146 147 144 148 153 152 154 159 155 150 150 150 149 152 155 156 158 162 165 165 162 159 158 160 163 164 163 159 156 153 151 151 153 153 150 148 148 148 147 146 145 145 144 141 141 143 145 143 141 145 151 153 155 161 163 164 172 177
221 222 202 195 17 68 124 137 130 116 101 55 333 321 43 59 26 343 323 345 349 10 99 100 94 113 132 139 144 146 144 145 152 156 156 159 156 147 143 147 151 151 154 158 160 161 164 166 165 163 162 160 162 164 163 159 156 153 151 152 153 153 151 149 148 148 148 148 148 147 146 146 145 146 149 151 152 159 171 175 170 166 165 167 165 152 145
232 155 97 85 79 70 66 74 87 84 76 61 345 351 36 60 49 16 331 0 50 77 103 106 108 125 134 142 150 147 147 153 155 154 158 158 150 143 145 150 154 157 159 162 162 163 166 167 165 164 164 163 163 163 159 156 155 152 151 153 153 151 150 149 149 150 150 149 149 149 149 151 151 152 158 161 161 169 178 175 170 168 161 156 152 138 124
101 131 130 122 115 98 76 68 79 76 66 44 10 20 44 48 47 42 0 162 124 123 123 118 122 138 143 151 157 150 153 161 155 148 153 152 147 146 148 152 159 165 166 165 164 163 165 166 164 163 165 165 163 159 157 156 155 153 154 154 153 152 152 151 151 153 152 151 151 151 153 156 157 159 169 175 171 172 173 165 160 164 160 154 148 136 127
105 142 145 132 124 130 149 149 85 35 42 62 39 40 64 54 37 37 34 104 141 148 144 134 139 153 155 159 159 153 157 165 154 142 141 145 149 152 155 159 164 167 167 167 166 164 164 164 163 163 165 166 162 158 157 157 156 155 155 155 153 154 153 153 155 156 154 153 153 155 158 161 162 166 178 183 177 177 177 169 168 173 165 154 151 143 135
208 148 98 87 125 146 173 188 162 222 223 110 79 62 74 76 63 49 42 100 140 153 157 145 147 164 169 167 167 164 160 160 153 143 138 144 153 156 157 163 168 167 168 170 167 162 162 162 162 163 164 164 162 158 158 158 158 156 156 156 156 156 155 156 158 157 155 155 155 158 165 168 167 172 181 182 173 162 148 142 149 161 155 143 134 112 114
229 135 66 14 177 129 38 351 63 70 5 100 105 101 98 97 89 76 70 92 125 150 160 143 146 168 174 169 169 161 145 143 152 153 145 147 156 158 155 161 170 170 170 170 165 161 162 162 161 163 164 163 161 159 159 161 160 157 156 157 158 157 157 159 159 156 156 156 157 163 168 164 156 157 167 171 165 155 144 138 133 127 129 137 140 109 97
275 95 52 310 218 105 26 352 21 40 7 2 65 159 153 121 106 106 110 92 88 136 168 154 153 165 178 177 167 153 143 145 155 160 153 149 157 162 159 163 172 173 169 168 165 162 164 163 162 163 163 162 161 160 161 163 160 157 156 158 159 159 160 161 159 156 156 159 162 168 169 157 146 142 137 138 146 152 160 176 179 162 152 163 172 150 117
62 72 88 73 87 120 151 6 26 34 8 344 316 274 215 114 117 125 129 124 126 143 161 171 165 161 179 186 163 150 157 159 154 158 159 155 159 164 163 167 176 176 170 168 166 165 165 163 162 163 162 160 161 162 163 163 160 158 160 161 160 161 162 162 160 158 160 165 168 170 171 164 155 152 143 130 133 143 156 177 194 198 198 205 196 175 161
93 68 50 41 53 114 136 106 55 44 19 354 331 335 7 57 127 147 142 152 166 157 157 200 190 165 175 194 170 151 161 165 158 159 162 163 164 165 165 172 178 174 170 170 169 166 165 163 162 163 161 160 162 164 164 163 160 161 164 164 162 164 164 163 162 160 163 172 174 171 174 173 162 160 160 151 147 153 165 172 184 195 199 202 196 188 193
137 138 91 35 79 117 142 170 133 81 47 10 3 19 22 23 21 134 148 159 170 155 157 198 205 167 171 189 177 153 158 164 159 157 160 164 165 163 167 176 179 174 171 173 171 167 165 163 162 162 160 161 164 166 165 162 161 164 168 166 164 166 164 162 164 164 165 175 180 172 174 178 169 165 170 168 165 174 181 178 179 182 183 186 186 189 199
122 154 197 198 180 167 175 173 109 74 53 25 25 38 40 21 3 3 120 140 153 162 165 175 186 182 175 172 173 172 165 157 154 155 160 166 165 163 171 179 178 173 172 173 171 170 166 163 162 162 161 163 166 167 165 163 163 168 171 167 167 169 164 161 167 169 166 174 184 179 175 179 175 170 175 177 176 180 183 183 189 195 194 193 192 190 189
102 106 292 222 184 91 61 69 79 70 58 44 23 18 94 71 343 314 143 126 145 176 171 167 184 201 184 169 176 173 151 143 148 156 164 169 167 168 175 178 176 174 174 174 174 172 166 162 163 163 162 164 168 167 164 164 165 169 172 169 169 170 164 162 169 174 167 171 183 185 181 182 180 177 181 183 179 180 184 189 195 203 205 204 203 195 185
101 76 47 66 113 94 70 63 58 62 69 60 6 329 77 124 216 234 209 172 174 187 179 181 202 216 186 168 177 157 134 139 153 163 167 169 169 172 176 177 176 175 174 175 176 171 164 163 164 163 161 165 169 168 166 165 166 171 174 172 168 166 160 159 168 179 176 174 182 188 184 183 184 185 189 186 180 182 190 195 198 204 209 210 209 202 195
102 84 69 79 94 110 129 118 107 96 86 72 328 313 9 249 225 218 218 213 201 197 209 215 217 200 158 154 166 155 143 152 163 166 168 167 168 174 178 176 175 174 175 177 176 168 163 163 164 162 162 166 170 171 167 165 167 173 177 173 165 161 157 158 168 183 186 179 181 187 185 181 184 192 198 191 182 185 194 197 200 208 208 204 205 206 208
99 83 68 80 95 137 186 157 130 114 96 81 237 123 131 255 248 236 245 240 207 190 213 225 216 166 149 156 163 161 158 161 163 167 170 168 169 175 178 174 172 175 176 176 173 167 164 166 165 162 161 165 171 173 168 165 169 174 174 170 163 163 164 165 171 182 189 183 180 183 184 183 186 192 197 194 190 197 206 203 203 212 208 194 194 202 214
111 101 98 114 132 182 184 129 114 115 99 62 2 4 148 226 240 250 253 245 198 176 214 208 166 152 159 165 163 156 152 151 149 152 159 162 165 171 172 168 166 166 170 175 175 171 167 165 163 159 159 165 171 172 166 165 168 167 168 171 171 168 170 173 174 177 183 186 183 180 182 187 190 193 195 193 191 199 211 212 204 206 208 201 200 208 219
145 160 182 179 152 162 163 138 134 155 130 103 30 301 227 194 213 251 248 206 114 81 35 356 239 184 159 162 167 158 141 129 121 117 119 129 140 149 155 156 155 157 167 175 173 168 166 164 159 157 159 165 169 166 161 161 162 162 169 182 186 174 171 175 178 176 180 185 183 178 181 190 196 198 197 196 195 200 209 215 212 206 209 217 223 227 228
224 190 164 149 130 142 171 139 145 169 126 97 63 2 348 350 319 299 296 106 110 112 113 303 319 79 98 107 120 124 117 112 110 111 113 116 122 131 139 145 149 152 155 154 154 162 169 163 154 152 155 158 158 154 155 161 167 171 178 188 188 174 170 176 181 183 184 183 178 176 183 192 201 205 199 196 201 207 208 212 217 216 214 220 230 239 235
336 45 32 24 44 39 12 2 349 189 125 119 113 64 6 348 6 6 0 21 101 145 153 85 72 78 87 91 96 107 113 114 116 120 121 121 124 130 135 139 138 137 140 146 155 165 160 144 138 141 147 151 152 151 156 166 176 181 183 186 181 170 170 175 181 186 190 185 179 180 187 194 202 210 205 197 202 211 214 216 220 222 222 227 234 240 237
74 55 8 28 65 60 28 2 345 354 21 39 85 78 55 24 28 29 20 21 82 161 118 98 91 90 94 99 104 111 119 126 131 133 133 134 137 140 143 142 140 142 147 155 162 160 150 144 144 147 149 155 162 165 166 173 181 183 182 182 177 168 168 173 180 186 193 191 185 185 190 193 199 209 211 205 203 209 214 220 225 227 228 233 238 239 232
68 351 301 46 67 55 53 27 341 349 19 5 353 39 58 44 23 22 23 99 148 91 89 110 117 114 108 108 116 126 133 137 138 139 141 144 147 150 149 145 144 148 152 156 159 160 159 158 160 162 164 170 177 178 176 178 184 186 182 177 170 166 169 175 181 187 195 198 194 192 193 194 199 207 212 213 212 211 212 217 221 224 227 232 239 243 234
81 12 355 10 15 17 30 11 324 336 41 41 13 33 57 62 55 58 78 149 140 117 102 112 121 104 92 97 117 134 141 145 146 145 147 149 152 152 149 145 147 152 156 156 160 164 167 168 168 170 175 180 182 182 181 182 184 183 178 175 170 168 172 178 184 190 197 203 202 200 198 197 200 204 209 213 219 221 220 221 222 222 223 226 231 238 237
92 49 0 349 343 340 333 288 311 350 28 50 47 45 41 53 96 111 110 98 99 100 94 86 82 84 89 98 111 124 136 145 147 146 147 151 153 152 150 150 154 158 160 163 167 170 173 175 176 178 181 182 180 180 181 181 181 178 177 182 182 176 175 179 186 192 198 202 204 205 203 201 203 206 208 212 218 223 226 228 228 229 230 228 227 230 232
106 125 223 283 288 281 271 266 5 34 39 67 93 89 89 97 108 118 120 108 100 102 115 114 103 99 106 111 111 120 137 147 149 148 148 152 154 152 150 156 162 160 158 164 173 178 178 175 173 176 180 180 177 177 178 179 180 183 187 192 192 185 178 179 185 192 197 201 204 206 205 204 205 209 211 213 216 219 224 228 229 232 235 234 232 231 231
166 162 85 9 266 262 278 323 76 79 67 70 101 112 124 131 129 133 135 126 122 134 152 146 132 127 131 130 125 129 142 150 153 154 152 150 150 145 140 146 157 160 160 162 166 174 179 177 173 173 176 177 179 181 180 179 184 193 196 193 192 192 186 182 184 190 196 200 204 207 208 208 209 210 212 215 217 218 221 224 226 228 232 236 238 240 239
73 66 352 252 228 254 353 36 91 101 109 125 116 116 129 143 145 144 142 138 139 148 154 150 144 144 144 139 134 136 145 153 157 158 156 154 152 144 137 144 153 158 163 165 160 160 169 175 175 173 175 179 184 186 181 180 189 201 206 196 193 197 195 188 187 191 195 199 203 207 210 212 215 214 214 218 221 223 224 226 226 227 228 229 232 237 241
119 157 256 241 154 73 49 85 109 118 139 142 116 120 143 157 152 147 140 136 143 154 153 145 144 143 139 136 135 138 146 155 159 159 162 165 161 153 153 162 161 160 166 175 173 166 166 171 174 177 180 184 190 190 185 185 192 204 212 208 198 197 198 195 193 196 198 200 202 205 208 211 216 218 218 219 222 226 230 233 235 236 235 233 232 234 236
156 188 231 214 125 110 118 134 131 140 160 154 131 137 159 164 156 151 145 145 156 162 146 134 137 138 135 136 139 141 150 160 162 159 161 168 169 168 171 175 175 173 172 173 176 179 180 180 181 183 184 191 202 196 188 188 194 203 212 217 208 200 199 199 199 202 205 206 206 208 210 211 214 218 221 221 223 225 228 231 236 240 243 244 244 243 241
158 181 193 173 156 147 146 150 149 152 160 152 135 145 163 165 159 156 153 160 169 158 138 135 145 150 146 147 152 153 157 164 165 159 155 159 171 181 183 180 179 180 178 174 174 179 180 181 182 183 185 196 215 207 190 188 194 202 210 218 221 215 210 208 205 206 211 213 214 217 219 219 218 220 222 223 224 226 228 230 233 236 239 242 245 248 248
163 177 162 149 168 177 168 157 149 149 158 155 145 154 171 170 158 152 154 165 173 157 142 147 160 162 157 161 167 164 164 169 170 167 166 167 172 181 184 184 183 184 182 180 180 181 179 180 183 182 185 199 219 215 196 191 194 200 207 215 221 223 223 221 216 212 214 217 219 222 226 228 228 228 227 228 229 230 232 234 235 237 238 239 240 243 246
172 166 142 147 186 204 178 132 126 139 156 161 157 166 181 182 171 164 162 164 169 166 161 162 166 165 163 168 169 162 162 170 175 178 181 181 177 175 177 181 186 189 186 183 182 184 187 189 189 186 189 203 217 214 198 191 194 201 207 211 214 218 222 224 224 222 223 224 225 226 228 230 231 230 231 233 236 238 239 240 241 242 245 247 248 250 251
170 152 141 162 190 183 149 139 145 151 162 170 169 169 178 188 197 196 180 168 169 171 167 165 169 173 171 170 168 166 167 172 177 183 187 189 185 178 176 178 187 193 191 188 187 189 193 200 203 201 199 205 211 209 200 197 201 206 209 210 211 214 217 220 222 224 225 226 228 229 231 233 234 234 234 236 237 237 238 239 241 243 246 250 254 257 260
173 154 149 173 184 157 143 165 180 170 187 200 182 166 172 184 195 198 186 173 172 173 167 164 170 175 174 173 175 176 174 172 175 182 186 188 186 184 186 190 195 192 190 192 196 200 204 214 219 210 203 202 205 206 206 210 212 211 211 214 215 215 216 219 222 224 225 226 227 229 231 234 236 238 239 241 242 242 241 240 240 241 242 243 243 245 248
172 155 153 174 173 145 142 176 201 197 212 213 166 151 167 186 190 185 185 182 178 174 169 164 164 168 174 179 181 179 175 174 175 176 180 183 183 184 190 196 200 196 193 197 205 211 218 228 224 207 199 200 203 204 207 214 218 217 217 220 221 219 219 221 222 223 226 228 228 227 229 231 233 236 238 240 242 244 246 245 245 245 245 245 243 241 239
178 164 162 182 185 158 159 187 207 209 212 196 150 142 162 188 185 176 181 188 187 180 171 160 155 163 184 198 194 181 175 178 177 174 175 181 183 182 186 193 199 202 202 203 206 211 220 227 225 209 201 202 202 202 207 215 220 222 225 228 228 226 225 226 227 228 231 232 232 231 230 231 232 235 238 239 240 242 245 246 246 247 249 250 250 248 246
193 184 170 181 190 176 175 191 198 196 204 202 170 153 169 192 184 173 176 187 192 188 177 163 159 167 183 206 208 188 179 179 179 176 177 183 186 185 186 193 200 205 209 208 205 207 215 222 222 216 208 204 201 201 208 215 220 223 226 228 229 231 232 233 234 236 237 238 240 241 240 239 239 240 241 242 243 244 247 250 252 254 256 259 258 254 252
207 209 180 182 188 181 183 200 197 184 192 204 192 177 192 216 209 182 170 177 194 200 192 179 172 174 181 195 209 204 190 182 178 176 178 185 190 190 190 195 200 204 208 210 208 206 210 214 216 214 208 203 201 204 210 215 220 224 227 226 227 231 234 237 240 242 242 243 244 246 247 250 252 253 254 255 255 256 256 258 261 262 264 266 267 266 262